Regional Weather Roundup
Issued by NWS

Home | Current Version | Previous Version | Graphics & Text | Print | Product List | Glossary On
Versions: 1 2 3 4 5 6 7 8 9 10 11 12 13 14 15 16 17 18 19 20 21 22 23 24 25 26 27 28 29 30 31 32 33 34 35 36 37 38 39 40 41 42 43 44 45 46 47 48 49 50
000
ASUS43 KTOP 160108
RWRKS

WEATHER ROUNDUP FOR KANSAS
NATIONAL WEATHER SERVICE GOODLAND KS
700 PM CST FRI DEC 15 2017

NOTE:  "FAIR" INDICATES FEW OR NO CLOUDS BELOW 12,000 FEET WITH NO
SIGNIFICANT WEATHER AND/OR OBSTRUCTIONS TO VISIBILITY.

KSZ001>006-013>018-027>032-041>047-160200-
NORTHWEST KANSAS

CITY           SKY/WX    TMP DP  RH WIND       PRES   REMARKS
GOODLAND       CLOUDY    48   7  18 SW17G24   29.85F
HAYS           CLEAR     41  17  38 SW12      29.90F
HILL CITY      CLEAR     47  15  27 SW13      29.86F
RUSSELL        CLEAR     39  19  44 S13       29.89F WCI  31
$$

KSZ061>065-074>080-084>089-160200-
SOUTHWEST KANSAS

CITY           SKY/WX    TMP DP  RH WIND       PRES   REMARKS
DODGE CITY     CLEAR     36  15  42 S10       29.95S WCI  28
ELKHART        CLEAR     41  20  42 SW13      29.94F
GARDEN CITY    CLOUDY    39  10  30 S7        29.93S
GREAT BEND     CLEAR     41  18  39 S9        29.95R
LIBERAL        CLEAR     42  19  39 S13       29.96F
PRATT          CLEAR     40  19  43 S10       29.97R WCI  34
$$

KSZ066>073-081>083-090>101-160200-
SOUTHEAST KANSAS

CITY           SKY/WX    TMP DP  RH WIND       PRES   REMARKS
CHANUTE        CLEAR     39  24  55 S8        30.06R
COFFEYVILLE    CLEAR     41  24  51 S13       30.07F
HUTCHINSON     CLEAR     39  22  50 S8        29.97R
MEDICINE LODGE   N/A     43  23  45 S9        29.99F
NEWTON         CLEAR     41  23  48 S14       29.99S
PARSONS        CLEAR     39  24  55 S7        30.07F
WICHITA INTL   CLEAR     42  25  50 S12       30.00S
WICHITA JABRA  CLEAR     43  25  49 S16       30.00S
WICHITA MCCONL CLEAR     41  23  48 SW13      30.01S
WINFIELD       CLEAR     40  27  59 S10       30.05F WCI  33
$$

KSZ007>012-019>026-033>040-048>060-102>105-160200-
NORTHEAST KANSAS

CITY           SKY/WX    TMP DP  RH WIND       PRES   REMARKS
CONCORDIA      CLEAR     46  21  37 S15       29.87S
EMPORIA        CLEAR     37  24  59 S12       30.00S WCI  29
LAWRENCE       CLEAR     43  25  49 S13       29.98S
MANHATTAN      CLEAR     45  23  42 SW16      29.92F
MARYSVILLE     CLEAR     43  25  49 S12       29.87F
OLATHE IND     CLEAR     40  25  55 S14       29.99F WCI  32
OLATHE EXE     CLEAR     38  24  57 S10       29.98F WCI  31
SALINA         CLEAR     43  22  43 S9        29.93F
TOPEKA BILLARD CLEAR     45  26  47 S10       29.95F
TOPEKA FORBES  CLEAR     41  25  53 S10       29.96F
$$




USA.gov is the U.S. government's official web portal to all federal, state and local government web resources and services.